Location: Zagreb
(45.8000°N, 16.0000°E)
Time: 19:54:27
(UTC+02:00)

A-11 Canister half - Pass Details

Date: 10 August 2022
Orbit: 1524 x 1684 km, 47.3° (Epoch: 05 October)

Event Time Altitude Azimuth Distance (km) Brightness Sun altitude
Rises 11:05:47 0° 284° (WNW) 4,940 11.3 51.2°
Reaches altitude 10° 11:08:58 10° 285° (WNW) 3,945 10.9 51.7°
Maximum altitude 11:19:09 86° 198° (SSW) 1,663 10.3 52.9°
Drops below altitude 10° 11:29:03 10° 111° (ESE) 3,841 11.8 54.1°
Sets 11:32:06 0° 111° (ESE) 4,804 12.1 54.4°
